Aérodrome :
LOGIN :

S'inscrire | Disclaimer

   EN    FR    IT 

 










Légende :    VFR   VFR Marginal   IFR   IFR Intensif   IFR Très Intensif
Visi : 
Plafond : 
>= 8 km
>= 3000ft
5 à 8 km
1000 à 3000 ft
1500m à 5 km
500 à 1000 ft
800 à 1500m
200 à 500 ft
< 800m
< 200 ft
Symboles :   Orages  Brouillard  Fortes neiges  Fortes précipitations  Vent > 20 kt
SIGMETs :   Divers  Orages  Givrage  Turbulence  Onde Orograph.  Cendres Volcan.







- Altitude de l'aérodrome : 291 ft
- Code IATA : ORY
- Voir les cartes d'approche


LFPO - Paris-Orly

DERNIER METAR :
  • 251130Z 06015KT 030V090 CAVOK 01/M12 Q1022 NOSIG

METARs EXPIRÉS :
  • 251100Z 07018KT CAVOK 01/M12 Q1022 NOSIG
  • 251030Z 06017KT CAVOK 00/M11 Q1022 NOSIG
  • 251000Z 06017KT CAVOK M00/M11 Q1022 NOSIG
  • 250930Z 06017KT CAVOK M00/M10 Q1022 NOSIG
  • 250900Z 06016KT CAVOK M01/M10 Q1021 NOSIG

TAF TAF LFPO
Valide du 25 à 12h jusqu'au 26 à 18h UTC


251100Z 2512/2618 05015KT CAVOK
TEMPO 2512/2519 05015G25KT
ATIS : +33 1 49 75 65 80
Pas de NOTAMs connus pour ce terrain.



MET'MAP, la Météo Aéronautique d'un coup d'oeil ! - Copyright ORBIFLY Décembre 2007 - Disclaimer

ORBIFLY MET'MAP TEAM :

Programmation & Développement : Alexandra Zaïnal
Conception & Développement : Baudouin d'Aumeries
Co-Programmation & Développement : Marc-Olivier Méhu
Soutien technique & logistique : Manuel Goepfert

Contact : metmap@orbifly.com




SOURCES & CREDITS :

   NOAA